FW2536 Weather Reports


time (UTC)temp
F
wind
direction
speed
knots
gust
knots
rain 1hr
in
rain 24hr
in
rain mn
in
humidity
%
barometer
mb
20260507124527 47 194 0.0 4.3 0.00 0.32 0.00 51 1013.6
20260507123025 45 65 0.0 5.2 0.00 0.32 0.00 52 1013.4
20260507121519 44 315 1.7 5.2 0.00 0.32 0.00 52 1013.5
20260507120015 44 303 0.9 5.2 0.00 0.32 0.00 53 1013.4
20260507114513 43 360 0.0 4.3 0.00 0.32 0.00 54 1013.2
20260507113009 42 360 0.9 2.6 0.00 0.32 0.00 56 1013.1
20260507111507 41 360 0.9 3.5 0.00 0.32 0.00 58 1012.9
20260507110004 40 360 0.0 2.6 0.00 0.32 0.00 59 1012.9
20260507104502 40 360 0.0 0.9 0.00 0.32 0.00 59 1012.9
20260507103129 40 360 0.0 0.0 0.00 0.32 0.00 59 1012.7
20260507101555 40 360 0.0 0.9 0.00 0.32 0.00 58 1012.5
20260507100106 41 360 0.0 0.0 0.00 0.32 0.00 58 1012.3
20260507094550 41 360 0.0 1.7 0.00 0.32 0.00 57 1012.4
20260507093048 42 360 0.9 2.6 0.00 0.32 0.00 57 1012.1
20260507091547 43 360 0.0 3.5 0.00 0.32 0.00 57 1012.0
20260507090053 43 360 0.0 2.6 0.00 0.32 0.00 57 1011.8
20260507084546 44 360 0.9 8.7 0.00 0.32 0.00 57 1011.7
20260507083044 44 360 0.9 3.5 0.00 0.32 0.00 57 1011.7
20260507081539 45 360 0.0 2.6 0.00 0.32 0.00 57 1011.8
20260507080045 45 360 0.0 5.2 0.00 0.32 0.00 57 1011.9
20260507074538 45 360 0.9 3.5 0.00 0.32 0.00 57 1012.1
20260507073041 45 360 0.0 4.3 0.00 0.32 0.00 58 1012.1
20260507071536 45 360 0.9 5.2 0.00 0.32 0.00 58 1012.2
20260507070051 45 360 0.9 3.5 0.00 0.32 0.00 59 1012.3
20260507064536 45 360 0.0 2.6 0.00 0.32 0.00 59 1012.2
20260507063035 45 360 0.0 1.7 0.00 0.32 0.00 59 1012.0
20260507061531 45 360 0.0 0.0 0.00 0.32 0.00 59 1011.8
20260507060030 45 360 0.0 0.0 0.00 0.32 0.00 59 1011.9
20260507054529 45 360 0.0 0.9 0.00 0.32 0.00 59 1011.7
20260507053029 45 360 0.0 0.9 0.00 0.32 0.00 59 1011.3
20260507051529 44 360 0.0 0.9 0.00 0.32 0.00 59 1011.4
20260507050039 44 360 0.0 0.0 0.00 0.32 0.00 59 1011.5
20260507044525 44 360 0.0 0.0 0.00 0.32 0.00 58 1011.6
20260507043024 44 360 0.0 0.0 0.00 0.32 0.00 58 1011.9
20260507041522 44 360 0.0 0.0 0.00 0.32 0.00 58 1012.0
20260507040120 45 360 0.0 1.7 0.00 0.32 0.00 57 1011.8
20260507034520 45 360 0.0 0.9 0.00 0.32 0.32 57 1011.9
20260507033018 46 360 0.0 0.9 0.00 0.32 0.32 57 1011.2
20260507031513 46 194 0.0 0.9 0.00 0.32 0.32 57 1011.4
20260507030113 46 194 0.0 0.9 0.00 0.32 0.32 57 1011.7
20260507024514 46 194 0.0 1.7 0.00 0.32 0.32 57 1011.7
20260507023010 47 191 0.0 2.6 0.00 0.32 0.32 57 1011.8
20260507021509 47 124 0.0 0.9 0.00 0.32 0.32 57 1012.0
20260507020011 47 124 0.0 1.7 0.00 0.32 0.32 57 1012.0
20260507014508 47 124 0.0 1.7 0.00 0.32 0.32 57 1012.4
20260507013007 47 124 0.0 0.0 0.00 0.32 0.32 57 1012.1
20260507011504 47 124 0.0 1.7 0.00 0.32 0.32 57 1012.1
20260507010003 47 124 0.0 0.9 0.00 0.32 0.32 57 1011.8
20260507004600 47 103 0.0 1.7 0.00 0.32 0.32 57 1011.5
20260507003058 47 102 0.0 0.0 0.00 0.32 0.32 57 1011.1
20260507001606 48 285 0.0 1.7 0.00 0.32 0.32 58 1010.8
20260507000122 47 281 0.9 2.6 0.00 0.32 0.32 58 1010.5
20260506234612 48 279 0.0 2.6 0.00 0.32 0.32 58 1010.5
20260506233052 48 66 0.9 4.3 0.00 0.32 0.32 58 1010.6
20260506231549 48 182 0.0 3.5 0.00 0.32 0.32 58 1010.5
20260506230057 48 234 0.9 3.5 0.00 0.32 0.32 59 1009.9
20260506224550 49 36 0.9 3.5 0.00 0.32 0.32 59 1009.7
20260506223041 49 171 0.0 7.0 0.01 0.32 0.32 59 1009.3
20260506221550 49 105 1.7 9.6 0.01 0.32 0.32 59 1008.5
20260506220043 50 262 2.6 9.6 0.01 0.32 0.32 61 1008.0
20260506214533 51 341 3.5 13.9 0.00 0.31 0.31 61 1007.5
20260506213035 52 50 1.7 7.8 0.00 0.31 0.31 62 1007.1
20260506211538 53 267 2.6 9.6 0.00 0.31 0.31 62 1007.1
20260506210032 54 310 1.7 9.6 0.00 0.31 0.31 62 1006.7
20260506204523 59 343 2.6 8.7 0.00 0.31 0.31 65 1006.6
20260506203018 59 230 0.9 3.5 0.00 0.31 0.31 65 1006.1
20260506201516 59 215 2.6 7.0 0.00 0.31 0.31 65 1006.3
20260506200017 59 236 1.7 7.0 0.00 0.31 0.31 65 1006.4
20260506194514 59 240 1.7 7.8 0.00 0.31 0.31 65 1006.4
20260506193018 59 250 2.6 7.8 0.00 0.31 0.31 65 1006.4
20260506191512 59 230 1.7 6.1 0.00 0.31 0.31 65 1006.4
20260506190009 58 246 2.6 9.6 0.00 0.31 0.31 65 1006.7
20260506184508 58 216 4.3 8.7 0.00 0.31 0.31 65 1006.6
20260506183006 58 220 3.5 9.6 0.01 0.31 0.31 65 1006.8
20260506181514 58 236 4.3 9.6 0.01 0.31 0.31 64 1006.8
20260506180004 58 228 2.6 5.2 0.03 0.31 0.31 64 1006.9
20260506174502 58 166 1.7 7.8 0.05 0.31 0.31 64 1006.8
20260506173004 59 228 1.7 6.1 0.05 0.30 0.30 64 1006.8
20260506171609 58 239 3.5 7.0 0.05 0.30 0.30 63 1007.0
20260506170112 58 230 1.7 6.1 0.03 0.28 0.28 63 1007.0
20260506164559 58 224 0.9 4.3 0.04 0.26 0.26 62 1007.0
20260506163100 58 259 2.6 5.2 0.06 0.25 0.25 62 1006.9
20260506161556 59 227 0.9 2.6 0.08 0.25 0.25 62 1007.0
20260506160055 58 227 1.7 7.0 0.09 0.25 0.25 61 1007.1
20260506154610 58 229 1.7 6.1 0.08 0.22 0.22 60 1007.4
20260506153054 59 242 1.7 6.1 0.04 0.18 0.18 59 1007.5
20260506151552 59 231 1.7 3.5 0.04 0.17 0.17 58 1007.3
20260506150051 59 236 0.9 3.5 0.05 0.16 0.16 58 1007.1
20260506144555 59 225 1.7 3.5 0.06 0.14 0.14 57 1007.1
20260506143050 59 233 0.0 2.6 0.08 0.14 0.14 57 1007.2
20260506141548 58 233 0.0 1.7 0.08 0.12 0.12 56 1007.3
20260506140046 58 233 0.9 3.5 0.09 0.11 0.11 56 1007.6
20260506134546 59 233 0.0 4.3 0.07 0.08 0.08 56 1007.8
20260506133058 59 232 0.9 3.5 0.06 0.06 0.06 55 1007.9
20260506131545 59 233 1.7 6.1 0.04 0.04 0.04 56 1008.1
20260506130044 60 232 2.6 5.2 0.02 0.02 0.02 57 1008.1